Home > Weather > Lugo > Past weeks

Flag for Spain Past Weather in Lugo, Galicia, Spain — Yesterday and Last 2 Weeks

Now
61 °F

Partly sunny.


Feels Like: 61 °F
Forecast: 54 / 72 °F
Wind: 2 mph from North

Location: Santiago / Labacolla

Current Time: Jul 1, 2016 at 10:19:09 AM

Latest Report: Jul 1, 2016 at 10:00 AM


Visibility: N/A

Pressure: 30.18 "Hg

Humidity: 83%

Dew Point: 55 °F

Location of LugoLocation

Past Weather in Lugo — Graph

°F

Lugo Temperature Yesterday

Maximum temperature yesterday: 73 °F (at 6:00 PM)
Minimum temperature yesterday: 52 °F (at 7:00 AM)
Average temperature yesterday: 61 °F

High & Low Weather Summary for the Past Weeks

 TemperatureHumidityPressure
High81 °F (Jun 21, 4:00 PM)100% (Jun 17, 1:00 AM)30.48 "Hg (Jun 17, 1:00 AM)
Low50 °F (Jun 19, 6:00 AM)28% (Jun 20, 4:00 PM)29.83 "Hg (Jun 16, 9:00 AM)
Average62 °F81%30.18 "Hg
* Reported Jun 16 9:00 AM — Jul 1 9:00 AM, Lugo, Weather by CustomWeather, © 2016

Note: Actual official high and low records may vary slightly from our data, if they occured in-between our weather recording intervals... More about our weather records

Advertising

Lugo Weather History for the Previous 24 Hours

Scroll right to see more
 ConditionsComfort  
Time TempWeatherWind HumidityBarometerVisibility
9:00 AM
Fri, Jul 1
59 °FPartly sunny.3 mph88%30.15 "HgN/A
8:30 AM59 °FPartly sunny.3 mph94%30.15 "HgN/A
8:00 AM59 °FPartly sunny.1 mph94%30.15 "HgN/A
7:30 AM59 °FPassing clouds.1 mph88%30.15 "HgN/A
7:00 AM59 °FPassing clouds.1 mph94%30.15 "HgN/A
6:30 AM59 °FPartly cloudy.No wind94%30.15 "HgN/A
6:00 AM59 °FPartly cloudy.No wind94%30.15 "HgN/A
5:30 AM59 °FPassing clouds.1 mph94%30.15 "HgN/A
5:00 AM59 °FPartly cloudy.No wind94%30.15 "HgN/A
4:30 AM59 °FPartly cloudy.1 mph94%30.15 "HgN/A
4:00 AM59 °FPartly cloudy.1 mph94%30.15 "HgN/A
3:30 AM59 °FPassing clouds.1 mph94%30.15 "HgN/A
3:00 AM61 °FPassing clouds.2 mph88%30.15 "HgN/A
2:30 AM61 °FPassing clouds.2 mph88%30.15 "HgN/A
2:00 AM61 °FPassing clouds.5 mph88%30.15 "HgN/A
1:30 AM61 °FPassing clouds.2 mph88%30.15 "HgN/A
1:00 AM61 °FPassing clouds.2 mph88%30.18 "HgN/A
12:30 AM61 °FPassing clouds.2 mph88%30.15 "HgN/A
12:00 AM61 °FPassing clouds.1 mph88%30.18 "HgN/A
11:30 PM
Thu, Jun 30
63 °FPassing clouds.2 mph83%30.15 "HgN/A
11:00 PM63 °FPartly sunny.2 mph88%30.15 "HgN/A
10:30 PM63 °FPartly sunny.2 mph88%30.15 "HgN/A
10:00 PM63 °FPartly sunny.2 mph88%30.12 "HgN/A
9:30 PM64 °FBroken clouds.2 mph83%30.12 "HgN/A
9:00 PM64 °FBroken clouds.5 mph83%30.12 "HgN/A
8:30 PM66 °FBroken clouds.5 mph78%30.12 "HgN/A
8:00 PM66 °FBroken clouds.9 mph78%30.12 "HgN/A
7:30 PM66 °FBroken clouds.9 mph83%30.12 "HgN/A
7:00 PM68 °FBroken clouds.5 mph78%30.12 "HgN/A
6:30 PM70 °FPartly sunny.6 mph69%30.12 "HgN/A
6:00 PM73 °FPartly sunny.8 mph61%30.12 "HgN/A
5:30 PM72 °FPartly sunny.9 mph69%30.12 "HgN/A
5:00 PM70 °FPartly sunny.8 mph69%30.12 "HgN/A
4:30 PM72 °FScattered clouds.6 mph57%30.12 "HgN/A
4:00 PM72 °FScattered clouds.5 mph61%30.12 "HgN/A
3:30 PM70 °FScattered clouds.7 mph69%30.12 "HgN/A
3:00 PM72 °FPartly sunny.6 mph61%30.12 "HgN/A
2:30 PM68 °FPartly sunny.2 mph73%30.15 "HgN/A
2:00 PM66 °FPartly sunny.5 mph78%30.15 "HgN/A
1:30 PM64 °FPartly sunny.5 mph83%30.12 "HgN/A
1:00 PM64 °FPartly sunny.3 mph78%30.12 "HgN/A
12:30 PM63 °FLow clouds.2 mph83%30.12 "HgN/A
12:00 PM61 °FLow clouds.1 mph83%30.12 "HgN/A
11:30 AM61 °FMostly cloudy.3 mph83%30.12 "Hg5 mi
11:00 AM59 °FFog.3 mph88%30.12 "Hg5 mi
10:30 AM59 °FBroken clouds.1 mph88%30.12 "Hg5 mi
10:00 AM59 °FFog.1 mph88%30.12 "Hg3 mi
Weather by CustomWeather, © 2016

See weather overviewHow to use our weather pages